Location: Newark
(52.8300°N, 8.0000°E)
Time: 22:16:00
(UTC+00:00)

STARLINK-1094 - Pass Details

Date: 31 January 2020
Orbit: 348 x 351 km, 53.0° (Epoch: 17 February)

Event Time Altitude Azimuth Distance (km) Brightness Sun altitude
Rises 17:06:53 0° 284° (WNW) 2,160 7.8 -8.7°
Reaches altitude 10° 17:08:58 10° 275° (W) 1,315 6.8 -9.0°
Maximum altitude 17:11:42 37° 206° (SSW) 567 4.1 -9.4°
Drops below altitude 10° 17:14:26 10° 137° (SE) 1,309 5.3 -9.8°
Enters shadow 17:15:45 - 131° (SE) 1,835 6.0 -10.0°
